Probability
0 0 0 0 0 0 0 0 0 0 0 0 0 0 0 0 0 0 0 0 0 0 0 0 0 0 0 0 0 0 0 0 0 0 0 0 0 0
0 0 0 0 0 0 0 0 0 0 0 0 0 0 0 0 0 0 0 0 0 0 0 0 0 0 0 0 0 0 0 0 0 0 0 0 0 0
0 0 0 0 0 0 0 0 0 0 0 0 0 0 0 0 0 0 0 0 0 0 0 0 0 0 0 0 0 0 0 0 0 0 0 0 0 0
0 0 0 0 0 0 0 0 0 0 0 0 0 0 0 0 0 0 0 0 0 0 0 0 0 0 0 0 0 0 0 0 0 0 0 0 0 0
0 0 0 0 0 0 0 0 0 0 0 0 0 0 0 0 0 0 0 0 0 0 0 0 0 0 0 0 0 0 0 0 0 0 0 0 0 0
0 0 0 0 0 0 0 0 0 0 0 0 0 0 0 0 0 0 0 0 0 0 0 0 0 0 0 0 0 0 0 0 0 0 0 0 0 0
0 0 0 0 0 0 0 0 0 0 0 0 0 0 0 0 0 0 0 0 0 0 0 0 0 0 0 0 0 0 0 0 0 0 0 0 0 0
0 0 0 0 0 0 0 0 0 0 0 0 0 0 0 0 0 0 0 0 0 0 0 0 0 0 0 0 0 0 0 0 0 0 0 0 0 0
0 0 0 0 0 0 0 0 0 0 0 0 0 0 0 0 0 0 0 0 0 0 0 0 0 0 0 0 0 0 0 0 0 0 0 0 0 0
0 0 0 0 0 0 0 0 0 0 0 0 0 0 0 0 0 0 0 0 0 0 0 0 0 0 0 0 0 0 0 0 0 0 0 0 0 0
0 0 0 0 0 0 0 0 0 0 0 0 0 0 0 0 0 0 0 0 0 0 0 0 0 0 0 0 0 0 0 0 0 0 0 0 0 0
0 0 0 0 0 0 0 0 0 0 0 0 0 0 0 0 0 0 0 0 0 0 0 0 0 0 0 0 0 0 0 0 0 0 0 0 0 0
0 0 0 0 0 0 0 0 0 0 0 0 0 0 0 0 0 0 0 0 0 0 0 0 0 0 0 0 0 0 0 0 0 0 0 0 0 0
0 0 0 0 0 0 0 0 0 0 0 0 0 0 0 0 0 0 0 0 0 0 0 0 0 0 0 0 0 0 0 0 0 0 0 0 0 0
0 0 0 0 0 0 0 0 0 0 0 0 0 0 0 0 0 0 0 0 0 0 0 0 0 0 0 0 0 0 0 0 0 0 0 0 0 0
0 0 0 0 0 0 0 0 0 0 0 0 0 0 0 0 0 0 0 0 0 0 0 0 0 0 0 0 0 0 0 0 0 0 0 0 0 0
0 0 0 0 0 0 0 0 0 0 0 0 0 0 0 0 0 0 0 0 0 0 0 0 0 0 0 0 0 0 0 0 0 0 0 0 0 0
0 0 0 0 0 0 0 0 0 0 0 0 0 0 0 0 0 0 0 0 0 0 0 0 0 0 0 0 0 0 0 0 0 0 0 0 0 0
0 0 0 0 0 0 0 0 0 0 0 0 0 0 0 0 0 0 0 0 0 0 0 0 0 0 0 0 0 0 0 0 0 0 0 0 0 0
0 0 0 0 0 0 0 0 0 0 0 0 0 0 0 0 0 0 0 0 0 0 0 0 0 0 0 0 0 0 0 0 0 0 0 0 0 0
0 0 0 0 0 0 0 0 0 0 0 0 0 0 0 0 0 0 0 0 0 0 0 0 0 0 0 0 0 0 0 0 0 0 0 0 0 0
0 0 0 0 0 0 0 0 0 0 0 0 0 0 0 0 0 0 0 0 0 0 0 0 0 0 0 0 0 0 0 0 0 0 0 0 0 0
0 0 0 0 0 0 0 0 0 0 0 0 0 0 0 0 0 0 0 0 0 0 0 0 0 0 0 0 0 0 0 0 0 0 0 0 0 0
Wind_Speed
11 11 8 6 6 5 5 6 6 5 5 4 3 3 4 3 5 4 3 5 4 3 3 3 3 4 4 5 6 7 8 9 10 11 13 14 15 16
9 11 9 6 6 5 6 5 4 5 4 3 3 2 3 4 6 4 4 5 4 3 3 2 2 2 3 4 6 7 8 9 10 11 12 13 15 16
10 11 11 8 7 6 5 5 4 4 4 2 2 2 3 4 3 3 3 2 2 3 2 2 1 1 2 4 5 6 7 9 10 11 12 13 15 15
11 11 11 9 9 7 7 6 5 5 5 5 2 2 3 4 4 3 2 2 1 2 2 1 0 1 2 3 4 5 7 8 10 11 12 13 14 15
12 12 12 11 10 8 8 7 5 5 4 5 4 2 2 3 3 2 2 1 1 1 1 0 0 1 2 3 4 5 6 8 9 10 11 13 14 15
10 11 11 12 12 10 8 8 7 6 5 5 4 3 3 3 3 3 2 1 1 1 1 1 1 2 2 3 4 5 6 8 9 10 11 12 13 14
9 9 10 12 13 11 8 9 9 7 6 5 4 3 3 4 4 3 3 2 1 1 0 0 1 1 1 3 4 5 6 8 9 10 11 11 12 13
9 8 9 11 13 14 13 13 12 10 8 6 5 5 5 5 4 4 4 3 1 1 1 0 0 0 1 1 4 5 6 8 9 10 10 11 12 12
9 9 7 8 11 9 10 11 10 10 11 9 8 7 7 7 7 5 4 3 2 1 1 0 0 1 1 2 4 5 6 7 8 9 10 11 11 12
9 10 9 9 10 10 9 7 6 5 7 6 6 6 6 7 7 6 6 5 3 1 1 1 0 1 2 2 4 5 7 8 9 9 10 11 11 11
8 9 10 9 13 15 11 9 7 5 6 10 10 9 11 12 10 7 6 4 2 1 1 1 0 1 1 1 3 6 7 8 9 9 10 11 11 10
6 7 11 12 15 16 12 11 10 7 8 8 8 9 8 9 10 6 6 5 3 2 1 2 1 1 1 2 2 3 4 7 9 9 11 11 11 6
6 6 7 13 16 16 13 10 12 11 9 9 8 7 6 5 4 3 3 4 4 3 3 3 2 1 1 1 2 2 2 3 4 5 8 11 11 8
6 6 7 13 15 15 11 13 16 13 8 8 7 6 5 5 4 4 5 4 4 4 4 3 3 2 2 0 2 3 3 2 2 3 4 8 8 10
5 9 11 13 13 11 14 17 14 9 8 8 7 5 4 5 5 5 5 5 6 4 3 2 2 2 2 2 1 2 2 3 3 3 4 4 4 4
6 10 12 12 10 11 11 10 6 7 8 8 7 6 6 5 4 4 4 3 4 3 3 3 2 2 2 1 1 1 1 2 3 4 4 4 3 3
7 6 6 7 7 6 6 6 6 7 7 7 8 7 7 6 4 4 3 3 3 2 1 2 2 1 1 2 1 1 1 2 2 3 4 4 4 3
8 7 7 7 7 7 7 7 6 6 7 8 8 7 7 6 6 4 3 4 4 2 1 1 1 2 2 1 1 1 1 1 2 3 3 3 4 4
7 7 7 7 7 7 7 7 6 6 7 8 8 8 7 7 6 5 4 4 3 3 1 1 1 2 2 1 3 1 0 2 2 3 2 2 3 5
6 7 7 7 7 7 7 7 7 7 7 7 7 7 7 7 6 6 5 5 4 3 2 1 1 1 2 1 1 2 3 1 1 2 3 2 3 5
6 6 6 7 7 7 7 7 7 7 8 7 7 8 7 7 6 6 5 7 5 3 3 1 1 0 1 2 1 2 3 4 3 1 2 2 3 3
6 6 6 6 7 8 8 7 7 7 8 7 7 7 7 7 7 7 6 5 4 3 2 1 1 1 2 2 2 1 2 4 5 5 4 2 1 2
6 6 7 7 7 7 8 8 8 7 7 7 7 7 7 7 6 6 6 5 5 4 3 2 2 2 2 2 2 1 2 2 3 3 4 7 6 5
Wind_Direction
194 191 190 189 187 182 170 167 166 182 211 201 187 189 185 177 180 173 180 202 206 220 248 273 286 299 310 323 326 328 328 330 331 329 328 328 328 329
190 190 193 189 185 181 175 173 175 175 195 190 182 167 173 171 179 168 181 187 198 222 242 262 285 300 321 331 330 328 329 330 330 329 328 328 328 329
190 192 193 183 180 181 174 170 174 167 184 185 141 142 156 166 156 150 158 169 191 216 225 239 271 306 327 332 328 327 330 332 331 328 327 329 329 329
191 192 192 184 183 180 179 180 181 177 172 179 160 158 164 167 153 157 158 155 159 190 199 216 218 316 331 330 330 332 335 333 330 329 329 330 331 330
190 192 191 182 185 182 180 180 179 173 169 164 163 150 144 145 141 141 132 120 113 124 135 141 28 8 345 337 336 337 338 334 333 333 332 333 333 331
191 192 191 187 185 182 181 180 172 166 158 154 153 148 142 138 143 153 153 126 92 58 47 49 50 36 4 352 348 344 339 336 334 333 333 335 335 332
190 192 191 188 183 181 179 177 171 170 163 162 161 152 159 160 176 161 156 129 102 82 67 25 49 23 359 350 346 340 341 340 337 335 336 337 337 334
186 187 186 183 181 179 178 175 174 173 175 173 174 177 183 173 153 148 139 136 192 161 117 278 90 311 320 312 329 341 343 343 341 340 338 338 338 338
185 183 183 182 174 172 171 167 171 174 176 175 176 182 175 173 158 152 154 150 166 159 120 219 349 289 309 328 338 344 349 348 345 343 343 343 342 341
187 183 179 176 174 164 159 157 159 170 175 171 169 169 162 157 159 152 141 115 91 70 91 136 321 304 327 326 341 356 354 352 350 349 349 348 344 343
186 181 176 176 168 157 154 154 152 145 127 131 130 130 133 135 134 122 125 121 126 154 82 111 98 321 314 309 330 353 354 353 355 355 353 349 345 346
177 177 176 173 166 161 162 161 162 160 143 130 119 112 115 124 127 138 147 140 135 161 170 119 113 60 335 310 319 332 342 347 355 356 354 349 348 350
175 174 171 167 167 166 166 168 165 153 145 137 129 119 110 107 103 98 114 138 142 160 161 133 127 115 129 300 315 323 335 333 339 342 346 345 349 354
176 170 163 163 164 164 162 154 147 141 138 135 133 133 130 126 116 103 94 86 91 131 147 136 138 154 140 236 292 317 324 327 338 336 331 336 344 347
164 159 156 158 155 155 151 147 145 143 142 141 144 143 136 134 125 111 92 85 74 69 89 115 138 147 150 181 246 303 320 324 338 337 331 331 330 333
140 139 139 141 139 138 141 142 144 149 147 145 139 133 126 127 129 128 122 112 90 57 41 60 105 139 153 204 208 270 300 308 325 331 328 325 326 328
140 134 137 138 140 140 139 139 139 140 137 135 135 136 137 136 134 128 120 112 109 120 66 25 34 70 162 171 163 275 307 314 316 328 332 331 325 330
143 149 151 152 153 152 151 147 145 147 144 140 140 142 145 144 136 126 118 122 123 124 118 77 40 38 36 22 212 244 316 313 324 328 331 326 327 331
148 156 158 157 156 153 154 152 150 148 143 142 144 145 144 141 137 135 133 127 124 122 121 120 92 94 79 5 327 320 298 325 330 328 325 318 311 316
155 158 159 156 154 153 153 150 145 142 141 143 145 145 143 141 139 140 142 140 138 129 122 119 129 145 158 179 264 315 327 325 319 323 324 318 307 309
156 151 150 152 151 149 148 147 147 145 146 146 146 145 145 142 141 142 142 140 132 136 146 168 213 106 113 94 67 345 331 341 344 319 321 332 337 346
152 147 146 147 148 146 145 144 143 142 145 145 145 145 144 143 144 144 144 143 142 143 141 135 96 82 85 96 86 10 341 343 353 3 1 3 357 345
150 146 145 146 145 143 143 144 144 145 147 145 144 144 143 140 139 139 138 135 133 130 122 107 70 66 73 90 89 54 14 356 355 5 2 358 0 351